| time (UTC) | temp F | wind direction | speed MPH | gust MPH | rain 1hr in | rain 24hr in | rain mn in | humidity % | barometer mb |
| 20260505152007 | 48 | 65 | 1.0 | 3.0 | 0.00 | 0.00 | 0.00 | 81 | 1012.5 |
| 20260505124007 | 34 | 161 | 0.0 | 0.0 | 0.00 | 0.00 | 0.00 | 91 | 1011.7 |
| 20260505122007 | 35 | 161 | 0.0 | 0.0 | 0.00 | 0.00 | 0.00 | 90 | 1011.5 |
| 20260505120005 | 35 | 161 | 0.0 | 0.0 | 0.00 | 0.00 | 0.00 | 90 | 1011.4 |
| 20260505113007 | 36 | 196 | 0.0 | 0.0 | 0.00 | 0.00 | 0.00 | 89 | 1011.1 |
| 20260505112007 | 36 | 196 | 0.0 | 0.0 | 0.00 | 0.00 | 0.00 | 90 | 1011.1 |
| 20260505102007 | 37 | 191 | 1.0 | 3.0 | 0.00 | 0.00 | 0.00 | 88 | 1010.8 |
| 20260505101007 | 38 | 191 | 0.0 | 1.0 | 0.00 | 0.00 | 0.00 | 88 | 1010.8 |
| 20260505094006 | 39 | 153 | 2.0 | 3.0 | 0.00 | 0.00 | 0.00 | 87 | 1010.4 |
| 20260505093007 | 39 | 244 | 1.0 | 3.0 | 0.00 | 0.00 | 0.00 | 87 | 1010.3 |
| 20260505090005 | 40 | 180 | 0.0 | 0.0 | 0.00 | 0.00 | 0.00 | 85 | 1010.1 |
| 20260505084006 | 41 | 132 | 0.0 | 0.0 | 0.00 | 0.00 | 0.00 | 85 | 1010.1 |
| 20260505083006 | 41 | 129 | 0.0 | 0.0 | 0.00 | 0.00 | 0.00 | 84 | 1010.0 |
| 20260505082007 | 42 | 129 | 0.0 | 1.0 | 0.00 | 0.00 | 0.00 | 83 | 1010.0 |
| 20260505081007 | 42 | 129 | 1.0 | 3.0 | 0.00 | 0.00 | 0.00 | 82 | 1010.0 |
| 20260505080005 | 43 | 161 | 1.0 | 3.0 | 0.00 | 0.00 | 0.00 | 83 | 1009.9 |
| 20260505075006 | 43 | 191 | 1.0 | 3.0 | 0.00 | 0.00 | 0.00 | 80 | 1009.9 |
| 20260505074007 | 44 | 163 | 1.0 | 3.0 | 0.00 | 0.00 | 0.00 | 80 | 1009.8 |
| 20260505073007 | 45 | 163 | 0.0 | 6.0 | 0.00 | 0.00 | 0.00 | 79 | 1009.7 |
| 20260505071006 | 46 | 161 | 1.0 | 5.0 | 0.00 | 0.00 | 0.00 | 76 | 1009.6 |
| 20260505064006 | 48 | 337 | 2.0 | 3.0 | 0.00 | 0.00 | 0.00 | 71 | 1009.4 |
| 20260505062007 | 51 | 9 | 0.0 | 2.0 | 0.00 | 0.00 | 0.00 | 67 | 1009.2 |
| 20260505060005 | 54 | 71 | 1.0 | 5.0 | 0.00 | 0.00 | 0.00 | 62 | 1009.1 |
| 20260505055006 | 56 | 193 | 3.0 | 7.0 | 0.00 | 0.00 | 0.00 | 56 | 1009.0 |
| 20260505054007 | 56 | 207 | 2.0 | 3.0 | 0.00 | 0.00 | 0.00 | 56 | 1009.0 |
| 20260505053007 | 58 | 207 | 1.0 | 6.0 | 0.00 | 0.00 | 0.00 | 56 | 1008.9 |
| 20260505052006 | 60 | 198 | 3.0 | 9.0 | 0.00 | 0.00 | 0.00 | 49 | 1008.7 |
| 20260505034007 | 59 | 56 | 1.0 | 3.0 | 0.00 | 0.00 | 0.00 | 53 | 1008.0 |
| 20260505031006 | 62 | 242 | 2.0 | 3.0 | 0.00 | 0.00 | 0.00 | 53 | 1007.3 |
| 20260505024006 | 69 | 9 | 3.0 | 9.0 | 0.00 | 0.00 | 0.00 | 38 | 1007.0 |
| 20260505023006 | 69 | 351 | 4.0 | 9.0 | 0.00 | 0.00 | 0.00 | 37 | 1006.8 |
| 20260505022006 | 70 | 326 | 6.0 | 12.0 | 0.00 | 0.00 | 0.00 | 37 | 1006.7 |
| 20260505021006 | 71 | 353 | 10.0 | 15.0 | 0.00 | 0.00 | 0.00 | 34 | 1006.7 |
| 20260505020004 | 71 | 336 | 9.0 | 13.0 | 0.00 | 0.00 | 0.00 | 34 | 1006.6 |
| 20260505013006 | 73 | 345 | 9.0 | 16.0 | 0.00 | 0.00 | 0.00 | 33 | 1006.3 |
| 20260505012006 | 73 | 9 | 10.0 | 20.0 | 0.00 | 0.00 | 0.00 | 33 | 1006.3 |
| 20260505011007 | 74 | 0 | 10.0 | 17.0 | 0.00 | 0.00 | 0.00 | 33 | 1006.2 |
| 20260505010005 | 75 | 21 | 8.0 | 16.0 | 0.00 | 0.00 | 0.00 | 34 | 1006.1 |
| 20260505005006 | 75 | 339 | 12.0 | 20.0 | 0.00 | 0.00 | 0.00 | 32 | 1005.9 |
| 20260505004006 | 75 | 287 | 9.0 | 18.0 | 0.00 | 0.00 | 0.00 | 33 | 1005.9 |
| 20260504233006 | 76 | 338 | 10.0 | 15.0 | 0.00 | 0.00 | 0.00 | 33 | 1006.0 |
| 20260504225006 | 76 | 341 | 12.0 | 16.0 | 0.00 | 0.00 | 0.00 | 29 | 1006.0 |
| 20260504222006 | 76 | 235 | 6.0 | 13.0 | 0.00 | 0.00 | 0.00 | 29 | 1006.2 |
| 20260504221006 | 76 | 348 | 6.0 | 10.0 | 0.00 | 0.00 | 0.00 | 31 | 1006.3 |
| 20260504215006 | 75 | 294 | 5.0 | 14.0 | 0.00 | 0.00 | 0.00 | 32 | 1006.3 |
| 20260504212005 | 75 | 91 | 4.0 | 13.0 | 0.00 | 0.00 | 0.00 | 33 | 1006.4 |
| 20260504210004 | 75 | 218 | 6.0 | 12.0 | 0.00 | 0.00 | 0.00 | 34 | 1006.6 |
| 20260504204006 | 74 | 349 | 8.0 | 13.0 | 0.00 | 0.00 | 0.00 | 34 | 1006.7 |
| 20260504200004 | 73 | 247 | 3.0 | 9.0 | 0.00 | 0.00 | 0.00 | 37 | 1007.1 |
| 20260504193006 | 72 | 249 | 6.0 | 12.0 | 0.00 | 0.00 | 0.00 | 35 | 1007.3 |
| 20260504192006 | 72 | 303 | 5.0 | 8.0 | 0.00 | 0.00 | 0.00 | 40 | 1007.3 |
| 20260504191006 | 72 | 337 | 6.0 | 12.0 | 0.00 | 0.00 | 0.00 | 41 | 1007.4 |
| 20260504190004 | 72 | 349 | 5.0 | 8.0 | 0.00 | 0.00 | 0.00 | 43 | 1007.4 |
| 20260504185006 | 71 | 331 | 5.0 | 10.0 | 0.00 | 0.00 | 0.00 | 42 | 1007.4 |
| 20260504183006 | 70 | 323 | 6.0 | 12.0 | 0.00 | 0.00 | 0.00 | 38 | 1007.6 |
| 20260504182006 | 70 | 332 | 4.0 | 9.0 | 0.00 | 0.00 | 0.00 | 43 | 1007.7 |
| 20260504173006 | 68 | 41 | 0.0 | 5.0 | 0.00 | 0.00 | 0.00 | 47 | 1007.9 |
| 20260504172007 | 66 | 19 | 1.0 | 5.0 | 0.00 | 0.00 | 0.00 | 51 | 1008.0 |
| 20260504171008 | 66 | 1 | 3.0 | 3.0 | 0.00 | 0.00 | 0.00 | 49 | 1007.9 |